#timestamp,LO_Frequency,Hit,StdDev 
1588572015.6,286047004.4,P
1588572035.4,286047002.2,N
1588572055.2,286046999.8,N
1588572075.1,286047001.1,N
1588572076.0,286047001.1,N
1588572095.8,286047000.0,N
1588572115.7,286047000.2,N
1588572135.5,286046998.6,N
1588572155.3,286046999.7,N
1588572175.2,286047002.3,N
1588572195.0,286047002.0,N
1588572195.9,286047002.0,N
1588572215.8,286047002.2,N
1588572235.6,286047001.7,N
1588572255.4,286046999.9,N
1588572275.3,286047000.2,N
1588572295.1,286047000.5,N
1588572315.8,286047000.7,N
1588572335.7,286047002.2,N
1588572355.5,286047002.6,N
1588572375.4,286047002.5,N
1588572395.2,286047002.3,N
1588572415.0,286047001.9,N
1588572415.9,286047001.9,N
1588572435.8,286047000.3,N
1588572455.6,286047002.6,N
1588572475.5,286047001.5,N
1588572495.3,286047001.8,N
1588572515.1,286047000.0,N
1588572535.9,286047000.2,N
1588572555.7,286047000.5,N
1588572575.7,286047001.0,N
1588572595.6,286046998.6,N
1588572615.4,286047000.7,N
1588572635.3,286047001.9,N
1588572655.1,286047000.2,N
1588572675.8,286047001.5,N
1588572695.7,286046999.7,N
1588572715.5,286046998.2,N
1588572735.4,286046999.1,N
1588572755.2,286046998.6,N
1588572775.0,286046999.0,N
1588572775.9,286046999.0,N
1588572795.8,286047000.2,N
1588572815.6,286047000.0,N
1588572835.4,286047001.0,N
1588572855.3,286046998.6,N
1588572875.1,286046996.9,N
1588572895.9,286046997.4,N
1588572915.7,286046996.8,N
1588572935.5,286046998.7,N
1588572955.4,286046996.5,N
1588572975.2,286046997.0,N
1588572995.1,286046998.0,N
1588572996.0,286046998.0,N
1588573015.8,286046995.4,N
1588573035.6,286046995.9,N
1588573055.5,286046994.9,N
1588573075.3,286046995.2,N
1588573095.1,286046994.6,N
1588573115.9,286046994.6,N
1588573135.7,286046994.4,N
1588573155.6,286046993.8,N
1588573175.4,286046992.1,Y
1588573195.2,286046993.8,P
1588573215.1,286046994.1,N
1588573216.0,286046994.1,P
1588573235.8,286046994.0,Y
1588573255.7,286047000.5,P
1588573275.5,286046998.5,N
1588573295.3,286047001.1,N
1588573315.2,286046998.6,N
1588573335.0,286047000.5,N
1588573335.9,286047000.5,N
1588573355.8,286046999.8,N
1588573375.6,286047000.2,N
1588573395.4,286047001.2,N
1588573415.3,286046998.6,N
1588573435.1,286046997.5,N
1588573455.8,286046994.9,N
1588573475.7,286046995.7,N
1588573495.5,286046995.8,N
1588573515.4,286046995.8,N
1588573535.2,286046997.2,N
1588573555.0,286046999.6,N
1588573555.9,286046999.6,N
1588573575.8,286046996.6,N
1588573595.6,286046996.2,N
1588573615.5,286046995.5,N
1588573635.3,286046995.6,N
1588573655.1,286046995.7,N
1588573675.9,286046996.1,N
1588573695.7,286046996.1,N
1588573715.6,286046996.1,N
1588573735.4,286046993.8,N
1588573755.2,286046993.3,Y
1588573775.1,286046996.8,P
1588573776.0,286046996.8,P
1588573795.8,286046997.2,P
1588573815.7,286046998.4,Y
1588573835.5,286047002.3,P
1588573855.3,286047002.4,N
1588573875.2,286047002.2,N
1588573895.0,286047001.6,N
1588573895.9,286047001.6,N
1588573915.8,286047003.2,N
1588573935.6,286047003.5,N
1588573955.4,286047002.0,N
1588573975.3,286046999.7,N
1588573995.1,286047001.8,N
1588574015.9,286047005.6,Y
1588574035.7,286047002.4,P
1588574055.5,286046999.8,N
1588574075.4,286047002.8,N
1588574095.2,286047000.6,N
1588574115.0,286047004.0,Y
1588574116.0,286047004.0,P
1588574135.8,286047001.9,N
1588574155.6,286047003.0,N
1588574175.5,286047004.1,Y
1588574195.3,286047000.1,P
1588574215.1,286046999.5,N
1588574235.9,286046995.7,P
1588574255.7,286046997.9,N
1588574275.6,286046997.2,N
1588574295.4,286046998.7,N
1588574315.2,286046996.9,N
1588574335.1,286046999.3,N
1588574336.0,286046999.3,N
1588574355.8,286046998.2,N
1588574375.7,286046999.3,N
1588574395.5,286046996.7,N
1588574415.3,286046995.1,N
1588574435.2,286046997.0,N
1588574455.0,286046996.6,N
1588574455.9,286046996.6,N
1588574475.7,286046998.9,N
1588574495.6,286047001.2,N
1588574515.4,286046998.8,N
1588574535.3,286046999.4,N
1588574555.1,286047000.7,N
1588574575.8,286046998.1,N
1588574595.7,286046996.5,N
1588574615.5,286047001.0,N
1588574635.4,286047000.6,N
1588574655.2,286047000.1,N
1588574675.0,286047000.6,N
1588574675.9,286047000.6,N
1588574695.8,286046998.3,N
1588574715.6,286047000.7,N
1588574735.4,286046998.2,N
1588574755.3,286046998.1,N
1588574775.1,286046996.7,N
1588574795.9,286046998.3,N
1588574815.7,286047000.5,N
1588574835.5,286047000.3,N
1588574855.4,286047000.0,N
1588574875.2,286047002.0,N
1588574895.1,286047001.8,N
1588574896.0,286047001.8,N
1588574915.8,286047001.9,N
1588574935.6,286047001.6,N
1588574955.5,286047001.9,N
1588574975.3,286047000.3,N
1588574995.1,286046998.5,N
1588575015.9,286047002.1,N
1588575035.7,286047002.8,N
1588575055.6,286047002.4,N
1588575075.4,286047002.2,N
1588575095.2,286047003.8,N
1588575115.1,286047001.4,N
1588575116.0,286047001.4,N
1588575135.8,286047002.3,N
1588575155.7,286047002.8,N
1588575175.5,286047001.6,N
1588575195.3,286047001.3,N
1588575215.2,286047002.7,N
1588575235.0,286047000.2,N
1588575235.9,286047000.2,N
1588575255.8,286047000.4,N
1588575275.6,286047002.8,N
1588575295.4,286047000.7,N
1588575315.3,286047000.1,N
1588575335.1,286047004.3,Y
1588575355.9,286047001.0,P
1588575375.7,286047002.2,P
1588575395.5,286047000.9,N
1588575415.4,286046999.9,N
1588575435.2,286046999.1,N
1588575455.1,286046998.3,N
1588575456.0,286046998.3,N
1588575475.8,286046999.8,N
1588575495.6,286046999.9,N
1588575515.5,286047003.6,N
1588575535.3,286047003.9,N
1588575555.1,286047001.5,N
1588575575.9,286047002.6,N
1588575595.7,286047002.4,N
